#timestamp,LO_Frequency,Hit,StdDev 
1607112015.0,286047000.4,P
1607112015.9,286047000.4,N
1607112035.7,286047001.9,N
1607112055.6,286047002.0,N
1607112075.4,286047004.3,Y
1607112095.2,286047004.4,P
1607112115.1,286047002.1,N
1607112116.0,286047002.1,N
1607112135.8,286047003.3,N
1607112155.6,286047005.9,Y
1607112175.5,286047001.4,P
1607112195.3,286047004.4,P
1607112215.1,286047003.5,N
1607112235.9,286047005.7,Y
1607112255.7,286047002.0,P
1607112275.5,286047002.5,P
1607112295.4,286047000.1,N
1607112315.2,286047003.9,Y
1607112335.1,286047002.5,P
1607112336.0,286047002.5,P
1607112355.8,286047004.1,P
1607112375.6,286047003.5,Y
1607112395.5,286047001.1,P
1607112415.3,286047000.9,N
1607112435.1,286047001.6,N
1607112455.9,286047001.3,N
1607112475.7,286047000.1,N
1607112495.5,286047002.1,N
1607112515.4,286047001.5,N
1607112535.2,286047004.2,Y
1607112555.0,286047001.7,P
1607112555.9,286047001.7,P
1607112575.8,286047005.4,P
1607112595.6,286047003.0,N
1607112615.4,286047003.2,N
1607112635.3,286047005.2,Y
1607112655.1,286047001.4,P
1607112656.0,286047001.4,N
1607112675.8,286047005.1,P
1607112695.7,286047005.7,Y
1607112715.5,286047002.4,P
1607112735.3,286047004.4,P
1607112755.2,286047003.2,P
1607112775.9,286047006.0,Y
1607112795.7,286046999.8,P
1607112815.6,286047002.3,N
1607112835.4,286047002.3,N
1607112855.2,286047002.4,N
1607112875.1,286047002.1,N
1607112876.0,286047002.1,N
1607112895.8,286047003.4,Y
1607112915.6,286047003.2,P
1607112935.5,286047003.5,P
1607112955.3,286047005.8,P
1607112975.1,286047005.7,Y
1607112995.9,286047002.3,P
1607113015.7,286047004.3,P
1607113035.5,286047004.4,P
1607113055.4,286047003.9,Y
1607113075.2,286047000.4,P
1607113095.0,286046998.4,N
1607113095.9,286046998.4,N
1607113115.8,286046998.1,N
1607113135.6,286046998.6,N
1607113155.4,286047000.6,N
1607113175.3,286047001.2,N
1607113195.1,286047002.8,N
1607113215.8,286047003.2,N
1607113235.7,286047003.3,N
1607113255.5,286047003.0,N
1607113275.3,286047004.6,N
1607113295.2,286047005.0,N
1607113315.0,286047004.5,N
1607113315.9,286047004.5,N
1607113335.7,286047007.3,Y
1607113355.6,286047002.9,P
1607113375.4,286047005.8,P
1607113395.2,286047007.0,P
1607113415.1,286047007.4,Y
1607113416.0,286047007.4,P
1607113435.8,286047001.6,N
1607113455.7,286047003.6,N
1607113475.5,286047004.2,N
1607113495.3,286047004.1,N
1607113515.2,286047005.9,Y
1607113535.9,286047001.2,P
1607113555.7,286046999.7,N
1607113575.6,286047002.3,N
1607113595.4,286047002.2,N
1607113615.2,286047000.4,N
1607113635.1,286047001.2,N
1607113636.0,286047001.2,N
1607113655.8,286047000.5,N
1607113675.6,286047000.6,N
1607113695.5,286047000.3,N
1607113715.3,286046999.3,N
1607113735.1,286046997.6,N
1607113755.9,286046999.6,N
1607113775.7,286046999.1,N
1607113795.5,286046999.3,N
1607113815.4,286046999.0,N
1607113835.2,286046998.2,N
1607113855.0,286047000.3,N
1607113855.9,286047000.3,N
1607113875.8,286047000.7,N
1607113895.6,286047001.0,N
1607113915.4,286047000.3,N
1607113935.3,286046998.4,N
1607113955.1,286046999.1,N
1607113956.0,286046999.1,N
1607113975.8,286046998.0,N
1607113995.7,286046997.2,N
1607114015.5,286046996.8,N
1607114035.3,286046997.5,N
1607114055.2,286046996.8,N
1607114075.9,286046997.2,N
1607114095.7,286046999.2,N
1607114115.6,286046996.8,N
1607114135.4,286046996.6,N
1607114155.2,286046995.3,Y
1607114175.1,286046997.5,P
1607114176.0,286046997.5,P
1607114195.8,286046994.9,P
1607114215.6,286046997.4,N
1607114235.5,286046996.7,N
1607114255.3,286046995.0,Y
1607114275.1,286046998.8,P
1607114295.9,286046998.3,N
1607114315.7,286046999.2,N
1607114335.5,286046999.2,N
1607114355.4,286046999.3,N
1607114375.2,286046997.2,Y
1607114395.0,286047001.1,P
1607114395.9,286047001.1,N
1607114415.8,286046998.2,N
1607114435.6,286046997.3,N
1607114455.4,286046997.9,N
1607114475.3,286046995.2,Y
1607114495.1,286046995.7,P
1607114496.0,286046995.7,N
1607114515.8,286046995.1,P
1607114535.7,286046993.4,Y
1607114555.5,286046998.6,P
1607114575.3,286046998.8,N
1607114595.2,286046996.6,P
1607114615.0,286046997.6,N
1607114615.9,286046997.6,N
1607114635.7,286046998.0,N
1607114655.6,286046995.4,Y
1607114675.4,286046998.6,P
1607114695.2,286046999.2,N
1607114715.1,286046999.2,N
1607114716.0,286046999.2,N
1607114735.8,286046996.6,Y
1607114755.6,286046997.0,P
1607114775.5,286046999.4,N
1607114795.3,286046997.4,N
1607114815.1,286046997.5,N
1607114835.9,286046996.1,Y
1607114855.7,286046999.6,P
1607114875.6,286046997.6,P
1607114895.4,286046997.9,N
1607114915.2,286046996.0,Y
1607114935.1,286046995.3,P
1607114936.0,286046995.3,P
1607114955.8,286046995.1,P
1607114975.6,286046994.9,Y
1607114995.5,286046998.3,P
1607115015.3,286047000.8,N
1607115035.1,286046999.2,N
1607115055.9,286046996.6,N
1607115075.7,286046998.8,N
1607115095.5,286046995.5,N
1607115115.4,286046997.9,N
1607115135.2,286046996.1,N
1607115155.0,286046996.4,N
1607115155.9,286046996.4,N
1607115175.8,286046993.6,Y
1607115195.6,286046996.8,P
1607115215.4,286046997.7,P
1607115235.3,286046997.3,P
1607115255.1,286046999.5,N
1607115256.0,286046999.5,N
1607115275.8,286046997.7,N
1607115295.7,286046995.2,Y
1607115315.5,286046999.2,P
1607115335.3,286046996.5,P
1607115355.2,286046997.2,N
1607115375.9,286046997.7,N
1607115395.7,286046997.8,N
1607115415.6,286046998.0,N
1607115435.4,286046993.7,Y
1607115455.2,286046997.4,P
1607115475.1,286046997.0,P
1607115476.0,286046997.0,P
1607115495.8,286046998.0,Y
1607115515.6,286046998.9,P
1607115535.5,286046998.2,N
1607115555.3,286046996.5,P
1607115575.1,286046997.5,N
1607115595.9,286046999.0,N
